Powrót do katalogu

COSMOS 1579 FUEL CORE

AktywnyLEO
NORAD 15330·DEBRIS·🇷🇺 Russia

Wystrzelony Jun 29, 1984 z Baikonur Cosmodrome

Loading…

Następne Przeloty (najbliższe 24 godziny)

TLE

ŚwieżeSource: Space-Track

Epoka: Sep 14, 2026, 21:18 UTC

1 15330U 84069D   26257.88792567 -.00000071  00000-0  14799-4 0  9996
2 15330  65.0560 313.6477 0050062 284.5602 256.2178 13.89920694144446

Śledź COSMOS 1579 FUEL CORE w czasie rzeczywistym z AllMySat

Download on the App Store